Location: G�migny
(47.9646°N, 1.6950°E)
Time: 01:47:36
(UTC+00:00)

USA 238 DEB - Pass Details

Date: 23 October 2019
Orbit: 1028 x 1184 km, 63.4° (Epoch: 11 November)

Event Time Altitude Azimuth Distance (km) Brightness Sun altitude
Rises 17:28:27 0° 199° (SSW) 3,771 7.0 -7.0°
Reaches altitude 10° 17:31:06 10° 194° (SSW) 2,832 6.2 -7.4°
Maximum altitude 17:37:30 51° 120° (ESE) 1,306 3.9 -8.5°
Drops below altitude 10° 17:44:08 10° 47° (NE) 2,931 5.5 -9.6°
Enters shadow 17:46:08 - 44° (NE) 3,641 6.0 -9.9°
